Find Starlink 36950

NORAD ID: 67992 Int'l Des: 2026-039 Owner: SPXS Country: US Constellation: starlink operational
LEOCIRCULAR

Live Position

Loading 3D Globe...

About Starlink 36950

Description loading...

Upcoming Passes

Passes for default location (London). Set your location on the main map for personalized predictions.

Altitude History

Loading altitude history...

Two-Line Element Set

1 67992U 26039G 26106.94948620 .00014118 00000-0 52192-3 0 9997
2 67992 43.0009 192.9681 0001445 255.1566 104.9125 15.27557882 7550
Epoch: Apr 16, 2026 • Age: 4 hours

Current Status

Altitude 487.0 km
Velocity 7.62 km/s
Sub-Earth Point -20.52°S, 147.61°E
Launch Date Feb 27, 2026
Age 0.1 years
Type internet

Technical Details

Classification Payload
Mass 575.00 kg
Dry Mass 530.00 kg
Total Mass 575.00 kg
Length 0.30 m
Diameter 4.10 m
Span 29.00 m
Shape Box + pan
Manufacturer SPXS
Bus Type Starlink V2MO
Phase Status In Orbit
Owner/State SPXS/US

Most Searched